GW1491 Weather Reports


time (UTC)temp
C
wind
direction
speed
KPH
gust
KPH
rain 1hr
cm
rain 24hr
cm
rain mn
cm
humidity
%
barometer
mb
20260507010329 12 314 3.2 3.2 0.00 0.00 1.19 68 1013.5
20260507005135 12 344 3.2 4.8 0.00 0.00 1.19 69 1013.2
20260507004543 12 331 1.6 4.8 0.00 0.00 1.19 70 1013.5
20260507003344 12 324 0.0 3.2 0.00 0.00 1.19 70 1013.2
20260507002728 12 333 1.6 1.6 0.00 0.00 1.19 70 1013.2
20260507001548 12 331 1.6 3.2 0.00 0.00 1.19 69 1013.2
20260507000314 12 318 3.2 9.7 0.00 0.00 1.19 68 1013.2
20260506235729 13 334 4.8 11.3 0.00 0.00 1.19 68 1012.8
20260506235133 13 355 3.2 9.7 0.00 0.00 1.19 67 1012.5
20260506234523 13 9 6.4 6.4 0.00 0.00 1.19 67 1012.5
20260506233939 13 301 3.2 3.2 0.00 0.00 1.19 69 1012.5
20260506233351 13 322 0.0 1.6 0.00 0.00 1.19 69 1012.8
20260506232743 13 316 1.6 3.2 0.00 0.00 1.19 69 1012.8
20260506232149 13 316 0.0 3.2 0.00 0.00 1.19 68 1013.2
20260506231525 13 344 0.0 1.6 0.00 0.00 1.19 67 1013.2
20260506230932 13 303 1.6 3.2 0.00 0.00 1.19 68 1013.5
20260506230329 13 298 4.8 6.4 0.00 0.00 1.19 66 1013.2
20260506225711 13 318 3.2 4.8 0.00 0.00 1.19 66 1013.2
20260506225110 14 317 1.6 1.6 0.00 0.00 1.19 66 1012.8
20260506224517 13 287 3.2 4.8 0.00 0.00 1.19 66 1013.2
20260506223932 14 264 4.8 6.4 0.00 0.00 1.19 65 1013.2
20260506223327 14 327 3.2 3.2 0.00 0.00 1.19 64 1013.2
20260506222722 14 287 3.2 4.8 0.00 0.00 1.19 65 1012.8
20260506222144 15 357 1.6 6.4 0.00 0.00 1.19 64 1012.5
20260506221515 15 340 3.2 3.2 0.00 0.00 1.19 63 1012.8
20260506220917 15 334 1.6 4.8 0.00 0.00 1.19 62 1012.8
20260506220343 15 333 3.2 4.8 0.00 0.00 1.19 62 1012.8
20260506215738 15 324 3.2 6.4 0.00 0.00 1.19 63 1012.5
20260506215141 15 335 3.2 4.8 0.00 0.00 1.19 62 1012.1
20260506214549 15 319 1.6 6.4 0.00 0.00 1.19 61 1012.1
20260506213317 15 287 6.4 9.7 0.00 0.00 1.19 63 1012.1
20260506212713 15 335 3.2 4.8 0.00 0.00 1.19 63 1012.5
20260506212127 15 321 3.2 4.8 0.00 0.00 1.19 64 1012.5
20260506210929 15 4 3.2 4.8 0.00 0.00 1.19 69 1012.1
20260506210347 16 303 1.6 3.2 0.00 0.00 1.19 69 1012.1
20260506204531 16 304 6.4 11.3 0.00 0.00 1.19 65 1011.8
20260506203311 16 307 3.2 3.2 0.00 0.00 1.19 65 1011.8
20260506202713 15 14 1.6 3.2 0.00 0.00 1.19 66 1011.8
20260506201533 15 322 1.6 9.7 0.00 0.00 1.19 68 1011.8
20260506200314 15 308 3.2 6.4 0.00 0.00 1.19 66 1011.8
20260506195752 16 331 1.6 4.8 0.00 0.00 1.19 67 1011.8
20260506194536 16 322 4.8 6.4 0.00 0.00 1.19 67 1011.8
20260506193953 15 39 3.2 4.8 0.00 0.00 1.19 70 1011.8
20260506193353 15 322 4.8 6.4 0.00 0.00 1.19 71 1011.8
20260506192743 15 314 8.0 11.3 0.00 0.00 1.19 71 1012.1
20260506192132 15 345 3.2 4.8 0.00 0.00 1.19 72 1011.8
20260506191543 15 40 3.2 6.4 0.00 0.00 1.19 72 1012.1
20260506190913 15 32 3.2 4.8 0.00 0.00 1.19 72 1011.8
20260506190340 15 325 4.8 4.8 0.00 0.00 1.19 74 1012.1
20260506185719 13 36 3.2 11.3 0.00 0.00 1.19 75 1012.1
20260506184536 14 36 3.2 6.4 0.00 0.00 1.19 77 1012.1
20260506183920 14 328 3.2 4.8 0.00 0.00 1.19 77 1012.1
20260506183330 14 306 1.6 4.8 0.00 0.00 1.19 78 1012.1
20260506182741 14 322 3.2 6.4 0.00 0.00 1.19 77 1012.1
20260506181541 14 317 1.6 3.2 0.00 0.00 1.19 78 1012.1
20260506180936 14 38 3.2 6.4 0.00 0.00 1.19 79 1012.1
20260506180354 14 32 6.4 9.7 0.00 0.00 1.19 79 1011.8
20260506175748 14 342 1.6 1.6 0.00 0.00 1.19 82 1012.1
20260506175127 13 322 1.6 6.4 0.00 0.00 1.19 85 1012.1
20260506174531 13 288 4.8 6.4 0.00 0.00 1.19 88 1012.1
20260506173943 12 302 9.7 11.3 0.00 0.00 1.19 92 1012.5
20260506173318 12 4 3.2 9.7 0.00 0.00 1.19 96 1012.1
20260506172712 12 353 3.2 6.4 0.00 0.00 1.19 99 1012.1
20260506172141 11 321 1.6 11.3 0.00 0.00 1.19 99 1012.5
20260506170953 11 350 6.4 9.7 0.00 0.00 1.19 99 1012.1
20260506170310 11 343 3.2 4.8 0.00 0.00 1.19 99 1012.1
20260506163946 10 329 4.8 16.1 0.00 0.00 1.19 99 1012.1
20260506163334 10 17 1.6 3.2 0.00 0.00 1.19 99 1012.1
20260506162749 11 284 4.8 6.4 0.00 0.00 1.19 99 1012.5
20260506162115 10 328 4.8 4.8 0.00 0.00 1.19 99 1012.1
20260506161546 10 313 1.6 6.4 0.00 0.00 1.19 99 1012.5
20260506160934 10 325 1.6 3.2 0.00 0.00 1.19 99 1012.1
20260506160351 10 44 1.6 4.8 0.00 0.00 1.19 99 1012.1
20260506155712 10 274 1.6 3.2 0.00 0.00 1.19 99 1012.1
20260506155128 10 30 3.2 6.4 0.00 0.00 1.19 99 1012.1
20260506154542 10 33 0.0 3.2 0.00 0.00 1.19 99 1011.5
20260506153930 11 334 1.6 6.4 0.00 0.00 1.19 99 1011.8
20260506153334 10 278 1.6 3.2 0.00 0.00 1.19 99 1011.8
20260506152733 10 359 1.6 3.2 0.00 0.00 1.19 99 1011.5
20260506151533 9 333 4.8 6.4 0.00 0.00 1.19 99 1011.5
20260506150933 9 313 4.8 6.4 0.00 0.00 1.19 99 1011.5
20260506150311 8 350 4.8 9.7 0.00 0.00 1.19 99 1011.5
20260506145750 8 348 4.8 14.5 0.00 0.00 1.19 99 1011.1
20260506145133 8 319 4.8 16.1 0.00 0.00 1.19 99 1011.1
20260506144538 8 5 1.6 6.4 0.00 0.00 1.19 99 1011.1
20260506143929 8 329 1.6 4.8 0.00 0.00 1.19 99 1010.8
20260506143317 9 332 1.6 3.2 0.00 0.00 1.19 99 1010.8
20260506142716 8 333 4.8 12.9 0.00 0.00 1.19 99 1011.1
20260506142117 8 317 1.6 6.4 0.00 0.00 1.19 99 1011.1
20260506141523 8 331 4.8 6.4 0.00 0.00 1.19 99 1010.8
20260506140935 8 325 6.4 9.7 0.00 0.00 1.19 99 1010.8
20260506140343 8 325 6.4 12.9 0.00 0.00 1.19 99 1010.4
20260506135734 8 350 6.4 9.7 0.00 0.00 1.19 99 1010.1
20260506135139 8 12 3.2 6.4 0.00 0.00 1.19 99 1010.1
20260506134512 8 296 4.8 6.4 0.00 0.00 1.19 99 1010.4
20260506133920 8 351 3.2 6.4 0.00 0.00 1.19 99 1010.1
20260506133350 8 290 1.6 9.7 0.00 0.00 1.19 99 1010.1
20260506132744 8 27 0.0 4.8 0.00 0.00 1.17 99 1010.1
20260506132120 8 312 4.8 9.7 0.00 0.00 1.17 99 1010.4
20260506131514 8 19 4.8 14.5 0.00 0.00 1.17 99 1010.1
20260506130920 8 24 4.8 12.9 0.00 0.00 1.17 99 1010.1
20260506125727 8 311 3.2 9.7 0.00 0.00 1.17 99 1009.8
20260506125146 8 3 1.6 4.8 0.00 0.00 1.14 99 1009.8
20260506124511 8 345 3.2 9.7 0.00 0.00 1.14 99 1009.4
20260506123932 8 0 1.6 14.5 0.00 0.00 1.14 99 1009.1
20260506123320 8 309 0.0 3.2 0.00 0.00 1.14 99 1009.1
20260506122715 8 348 4.8 6.4 0.00 0.00 1.14 99 1008.8
20260506122149 8 352 4.8 9.7 0.00 0.00 1.14 99 1009.1
20260506121518 8 6 1.6 4.8 0.00 0.00 1.14 99 1009.1
20260506120310 8 0 0.0 4.8 0.00 0.00 1.14 99 1008.4
20260506115715 8 295 4.8 6.4 0.00 0.00 1.14 99 1008.4
20260506115122 8 352 1.6 4.8 0.00 0.00 1.14 99 1008.4
20260506114533 9 328 4.8 9.7 0.00 0.00 1.14 99 1008.4
20260506113948 9 347 6.4 12.9 0.00 0.00 1.14 99 1008.4
20260506112733 9 343 3.2 9.7 0.00 0.00 1.14 99 1008.1
20260506111515 10 298 1.6 9.7 0.00 0.00 1.14 99 1007.7
20260506110913 10 332 8.0 12.9 0.00 0.00 1.14 99 1007.7
20260506105711 11 312 3.2 6.4 0.00 0.00 1.12 99 1007.4
20260506105146 13 297 6.4 12.9 0.00 0.00 1.09 99 1007.4
20260506103921 13 276 1.6 3.2 0.00 0.00 1.07 99 1007.1
20260506103351 13 246 0.0 1.6 0.00 0.00 1.07 99 1006.7
20260506102708 13 254 3.2 3.2 0.00 0.00 1.07 99 1007.1
20260506102109 13 198 1.6 3.2 0.00 0.00 1.04 99 1007.1
20260506100950 13 246 3.2 12.9 0.00 0.00 1.04 99 1006.7
20260506095711 13 125 1.6 4.8 0.00 0.00 1.04 99 1007.1
20260506095149 13 245 3.2 6.4 0.00 0.00 1.04 99 1007.1
20260506094538 13 348 1.6 4.8 0.00 0.00 1.04 99 1006.7
20260506093321 13 278 1.6 3.2 0.00 0.00 1.04 99 1007.1
20260506092747 13 211 0.0 3.2 0.00 0.00 1.04 99 1007.1
20260506092113 13 72 1.6 6.4 0.00 0.00 1.02 99 1007.1
20260506090323 13 190 1.6 3.2 0.00 0.00 0.97 99 1007.1
20260506085736 13 170 1.6 6.4 0.00 0.00 0.97 99 1007.1
20260506085114 13 185 1.6 4.8 0.00 0.00 0.97 99 1007.1
20260506083926 13 259 4.8 6.4 0.00 0.00 0.94 99 1007.1
20260506083337 13 232 6.4 9.7 0.00 0.00 0.94 99 1007.1
20260506082737 13 241 3.2 4.8 0.00 0.00 0.91 99 1007.1
20260506082142 13 255 6.4 16.1 0.00 0.00 0.91 99 1007.1
20260506081514 13 265 3.2 9.7 0.00 0.00 0.89 99 1007.1
20260506080930 13 146 3.2 9.7 0.00 0.00 0.89 99 1007.1
20260506080318 13 205 3.2 11.3 0.00 0.00 0.86 99 1007.1
20260506073309 13 171 1.6 3.2 0.00 0.00 0.79 99 1007.4
20260506072709 13 253 0.0 3.2 0.00 0.00 0.71 99 1007.1
20260506072143 13 233 0.0 4.8 0.00 0.00 0.66 99 1007.4
20260506071550 13 232 1.6 4.8 0.00 0.00 0.61 99 1007.4
20260506070907 13 241 1.6 6.4 0.00 0.00 0.58 99 1007.4
20260506070330 13 204 1.6 6.4 0.00 0.00 0.56 99 1007.4
20260506062127 13 205 0.0 0.0 0.00 0.00 0.43 99 1007.1
20260506061510 13 120 0.0 0.0 0.00 0.00 0.43 99 1007.1
20260506060342 13 141 0.0 0.0 0.00 0.00 0.36 99 1007.7
20260506050949 14 223 0.0 1.6 0.00 0.00 0.30 99 1008.1
20260506050336 14 185 0.0 3.2 0.00 0.00 0.28 99 1008.4
20260506044516 14 154 0.0 3.2 0.00 0.00 0.18 99 1009.1
20260506043920 14 137 3.2 3.2 0.00 0.00 0.13 98 1009.1
20260506042725 14 265 1.6 6.4 0.00 0.00 0.05 98 1009.1
20260506042128 15 276 3.2 4.8 0.00 0.00 0.03 97 1009.4
20260506041543 15 280 1.6 3.2 0.00 0.00 0.00 97 1009.4
20260506040349 15 203 0.0 0.0 0.00 0.00 0.08 96 1008.8
20260506035712 15 199 0.0 0.0 0.00 0.00 0.08 95 1008.8
20260506035141 15 239 0.0 0.0 0.00 0.00 0.05 95 1008.8
20260506033948 15 240 0.0 1.6 0.00 0.00 0.05 94 1008.8
20260506033317 15 218 0.0 0.0 0.00 0.00 0.05 93 1008.8
20260506032715 15 197 0.0 1.6 0.00 0.00 0.05 93 1009.1
20260506032147 15 204 0.0 0.0 0.00 0.00 0.05 92 1008.8
20260506031550 15 189 1.6 3.2 0.00 0.00 0.05 92 1009.1
20260506030914 15 149 3.2 3.2 0.00 0.00 0.05 91 1008.8
20260506030347 15 199 0.0 1.6 0.00 0.00 0.05 90 1008.8
20260506025746 16 198 0.0 1.6 0.00 0.00 0.05 88 1008.8
20260506025129 16 150 1.6 3.2 0.00 0.00 0.05 86 1009.1
20260506024518 16 202 1.6 3.2 0.00 0.00 0.03 83 1009.1
20260506023916 17 227 1.6 3.2 0.00 0.00 0.03 79 1009.1
20260506023351 17 219 4.8 9.7 0.00 0.00 0.00 76 1009.4
20260506022716 18 213 4.8 9.7 0.00 0.00 0.00 73 1009.1
20260506022143 18 242 1.6 9.7 0.00 0.00 0.00 72 1009.1
20260506021545 18 177 3.2 9.7 0.00 0.00 0.00 70 1009.1
20260506020946 19 291 1.6 4.8 0.00 0.00 0.00 69 1009.1
20260506020334 19 210 1.6 6.4 0.00 0.00 0.00 68 1008.8
20260506015719 19 262 1.6 4.8 0.00 0.00 0.00 67 1009.1
20260506015150 19 240 3.2 3.2 0.00 0.00 0.00 67 1008.8
20260506014532 19 27 1.6 3.2 0.00 0.00 0.00 66 1008.8
20260506013937 20 283 3.2 3.2 0.00 0.00 0.00 66 1008.8
20260506013345 20 234 3.2 9.7 0.00 0.00 0.00 65 1008.8
20260506012147 20 123 3.2 11.3 0.00 0.00 0.00 65 1009.1
20260506010911 20 128 4.8 11.3 0.00 0.00 0.00 64 1008.8